Bookmark and Share
Track history (hours):
 

Fti Berlin

Last reported at 2014-Apr-18 17:28 UTC. Time now 2014-Apr-19 05:08 UTC.
Position N 43°17' E 007°22'.

Length 140 m; draft 5 m.

Type: Passenger vessel. MMSI: 248277000.

NotesDate/timePositionNaut miles runAvg speedWind from/ knotsBaromVisibWave heightAir tempDewpointWater temp
2014-Apr-18 17:28N 43°17' E 007°22'1112.2
2014-Apr-18 16:33N 43°28' E 007°19'1212.1
2014-Apr-18 15:33N 43°40' E 007°17'2 1.6
2014-Apr-18 14:29N 43°42' E 007°17'0 0.0
2014-Apr-18 13:29N 43°42' E 007°17'0 0.0
2014-Apr-18 12:29N 43°42' E 007°17'0 0.0
2014-Apr-18 11:29N 43°42' E 007°17'0 0.0
2014-Apr-18 10:29N 43°42' E 007°17'0 0.0
2014-Apr-18 09:29N 43°42' E 007°17'0 0.0
2014-Apr-18 08:29N 43°42' E 007°17'0 0.0
2014-Apr-18 07:29N 43°42' E 007°17'0 0.0
2014-Apr-18 06:29N 43°42' E 007°17'0 0.0
2014-Apr-18 05:29N 43°42' E 007°17'0 0.0
2014-Apr-18 04:29N 43°42' E 007°17'0 0.0
2014-Apr-18 03:33N 43°42' E 007°17'5 5.1
2014-Apr-18 02:33N 43°38' E 007°22'1313.2
2014-Apr-18 01:33N 43°34' E 007°40'1413.7
2014-Apr-18 00:33N 43°29' E 007°57'1413.7
2014-Apr-17 23:33N 43°23' E 008°15'1413.9
2014-Apr-17 22:33N 43°18' E 008°32'1413.8
2014-Apr-17 21:33N 43°13' E 008°50'2813.7
2014-Apr-17 19:32N 43°03' E 009°25'1813.8
2014-Apr-17 18:14N 42°55' E 009°47'1413.7
2014-Apr-17 17:13N 42°53' E 010°06'913.5
2014-Apr-17 16:32N 42°51' E 010°19'4 0.3
2014-Apr-17 05:20N 42°52' E 010°14'12012.3
2014-Apr-16 19:34N 40°56' E 009°35'3 2.7
2014-Apr-16 18:29N 40°55' E 009°31'0 0.0
2014-Apr-16 17:29N 40°55' E 009°31'0 0.0
2014-Apr-16 16:29N 40°55' E 009°31'0 0.0
2014-Apr-16 15:29N 40°55' E 009°31'0 0.0
2014-Apr-16 14:29N 40°55' E 009°31'0 0.0
2014-Apr-16 13:29N 40°55' E 009°31'0 0.0
2014-Apr-16 12:29N 40°55' E 009°31'0 0.0
2014-Apr-16 11:29N 40°55' E 009°31'0 0.0
2014-Apr-16 10:33N 40°55' E 009°31'16911.0
2014-Apr-15 19:09N 40°42' E 013°14'711.4
2014-Apr-15 18:33N 40°41' E 013°23'1211.9
2014-Apr-15 17:33N 40°40' E 013°38'1212.1
2014-Apr-15 16:33N 40°39' E 013°54'1212.5
2014-Apr-15 15:33N 40°39' E 014°11'9 8.9
2014-Apr-15 14:31N 40°38' E 014°23'0 0.0
2014-Apr-15 12:31N 40°38' E 014°23'0 0.0
2014-Apr-15 09:31N 40°38' E 014°23'0 0.0
2014-Apr-15 07:31N 40°38' E 014°23'0 0.0
2014-Apr-15 05:34N 40°38' E 014°23'2 1.1
2014-Apr-15 03:34N 40°38' E 014°20'1110.4
2014-Apr-15 02:33N 40°28' E 014°21'  
2014-Apr-10 17:14N 37°53' E 015°45'913.7
2014-Apr-10 16:32N 37°58' E 015°35'1413.7
2014-Apr-10 15:33N 38°12' E 015°35'356 9.5
2014-Apr-09 02:17N 42°32' E 010°17'2714.0
2014-Apr-09 00:20N 42°51' E 009°50'  

Dump ship's entire track history

sailing weather and tide predictions

Fti Berlin — 9HA2295 — position and weather